| time (UTC) | temp F | wind direction | speed knots | gust knots | rain 1hr in | rain 24hr in | rain mn in | humidity % | barometer mb |
| 20260906022123 | 76 | 32 | 2.6 | 4.3 | 0.00 | 0.00 | 0.00 | 92 | 989.0 |
| 20260906021122 | 76 | 41 | 1.7 | 3.5 | 0.00 | 0.00 | 0.00 | 91 | 989.0 |
| 20260906020123 | 77 | 31 | 1.7 | 3.5 | 0.00 | 0.00 | 0.00 | 91 | 989.0 |
| 20260906015123 | 77 | 46 | 1.7 | 4.3 | 0.00 | 0.00 | 0.00 | 90 | 988.9 |
| 20260906014122 | 77 | 19 | 1.7 | 3.5 | 0.00 | 0.00 | 0.00 | 90 | 988.7 |
| 20260906013122 | 78 | 38 | 1.7 | 3.5 | 0.00 | 0.00 | 0.00 | 89 | 988.6 |
| 20260906012122 | 78 | 45 | 2.6 | 4.3 | 0.00 | 0.00 | 0.00 | 89 | 988.6 |
| 20260906011122 | 79 | 47 | 3.5 | 6.1 | 0.00 | 0.00 | 0.00 | 88 | 988.2 |
| 20260906010143 | 79 | 38 | 3.5 | 6.1 | 0.00 | 0.00 | 0.00 | 87 | 988.2 |
| 20260906005122 | 80 | 36 | 3.5 | 4.3 | 0.00 | 0.00 | 0.00 | 85 | 988.2 |
| 20260906004122 | 81 | 42 | 4.3 | 7.0 | 0.00 | 0.00 | 0.00 | 84 | 988.0 |
| 20260906003122 | 82 | 50 | 3.5 | 6.1 | 0.00 | 0.00 | 0.00 | 82 | 988.0 |
| 20260906002143 | 83 | 22 | 3.5 | 6.1 | 0.00 | 0.00 | 0.00 | 81 | 988.0 |
| 20260906001123 | 84 | 23 | 3.5 | 6.1 | 0.00 | 0.00 | 0.00 | 79 | 987.9 |
| 20260906000122 | 84 | 26 | 3.5 | 5.2 | 0.00 | 0.00 | 0.00 | 79 | 987.9 |
| 20260905235122 | 85 | 18 | 3.5 | 5.2 | 0.00 | 0.00 | 0.00 | 78 | 988.0 |
| 20260905234143 | 85 | 33 | 3.5 | 6.1 | 0.00 | 0.00 | 0.00 | 78 | 987.8 |
| 20260905233143 | 86 | 49 | 4.3 | 6.1 | 0.00 | 0.00 | 0.00 | 77 | 987.5 |
| 20260905232123 | 86 | 39 | 4.3 | 7.8 | 0.00 | 0.00 | 0.00 | 76 | 987.4 |
| 20260905231122 | 87 | 51 | 4.3 | 7.0 | 0.00 | 0.00 | 0.00 | 75 | 987.2 |
| 20260905230122 | 88 | 39 | 4.3 | 8.7 | 0.00 | 0.00 | 0.00 | 75 | 987.2 |
| 20260905225122 | 89 | 43 | 4.3 | 7.0 | 0.00 | 0.00 | 0.00 | 74 | 987.6 |
| 20260905224123 | 90 | 45 | 4.3 | 7.0 | 0.00 | 0.00 | 0.00 | 72 | 987.4 |
| 20260905223143 | 91 | 60 | 3.5 | 7.0 | 0.00 | 0.00 | 0.00 | 69 | 987.4 |
| 20260905222122 | 91 | 24 | 3.5 | 6.1 | 0.00 | 0.00 | 0.00 | 69 | 987.4 |
| 20260905221144 | 93 | 42 | 2.6 | 5.2 | 0.00 | 0.00 | 0.00 | 66 | 987.2 |
| 20260905220122 | 93 | 39 | 3.5 | 6.1 | 0.00 | 0.00 | 0.00 | 65 | 987.2 |
| 20260905215122 | 93 | 24 | 3.5 | 6.1 | 0.00 | 0.00 | 0.00 | 65 | 987.2 |
| 20260905214144 | 94 | 43 | 2.6 | 4.3 | 0.00 | 0.00 | 0.00 | 63 | 987.2 |
| 20260905213122 | 95 | 77 | 1.7 | 4.3 | 0.00 | 0.00 | 0.00 | 63 | 987.1 |
| 20260905212123 | 95 | 15 | 2.6 | 5.2 | 0.00 | 0.00 | 0.00 | 63 | 987.1 |
| 20260905211123 | 96 | 41 | 3.5 | 6.1 | 0.00 | 0.00 | 0.00 | 63 | 987.1 |
| 20260905210122 | 95 | 37 | 3.5 | 6.1 | 0.00 | 0.00 | 0.00 | 63 | 987.1 |
| 20260905205122 | 95 | 45 | 2.6 | 4.3 | 0.00 | 0.00 | 0.00 | 63 | 987.2 |
| 20260905204123 | 94 | 41 | 3.5 | 7.0 | 0.00 | 0.00 | 0.00 | 64 | 987.2 |
| 20260905203122 | 95 | 54 | 3.5 | 6.1 | 0.00 | 0.00 | 0.00 | 63 | 987.5 |
| 20260905202122 | 95 | 123 | 2.6 | 5.2 | 0.00 | 0.00 | 0.00 | 63 | 987.5 |
| 20260905201123 | 94 | 33 | 2.6 | 4.3 | 0.00 | 0.00 | 0.00 | 65 | 987.6 |
| 20260905200122 | 94 | 42 | 2.6 | 6.1 | 0.00 | 0.00 | 0.00 | 64 | 987.6 |
| 20260905195122 | 94 | 57 | 1.7 | 4.3 | 0.00 | 0.00 | 0.00 | 65 | 987.5 |
| 20260905194123 | 92 | 20 | 3.5 | 6.1 | 0.00 | 0.00 | 0.00 | 67 | 987.5 |
| 20260905193143 | 94 | 32 | 2.6 | 3.5 | 0.00 | 0.00 | 0.00 | 67 | 987.7 |
| 20260905192122 | 92 | 6 | 2.6 | 6.1 | 0.00 | 0.00 | 0.00 | 67 | 987.7 |
| 20260905191123 | 93 | 30 | 2.6 | 4.3 | 0.00 | 0.00 | 0.00 | 67 | 987.9 |
| 20260905190143 | 94 | 43 | 2.6 | 5.2 | 0.00 | 0.00 | 0.00 | 65 | 987.9 |
| 20260905185143 | 94 | 13 | 2.6 | 6.1 | 0.00 | 0.00 | 0.00 | 65 | 988.0 |
| 20260905184124 | 94 | 30 | 2.6 | 5.2 | 0.00 | 0.00 | 0.00 | 65 | 988.0 |
| 20260905183122 | 94 | 43 | 3.5 | 5.2 | 0.00 | 0.00 | 0.00 | 65 | 988.1 |
| 20260905182123 | 95 | 62 | 2.6 | 4.3 | 0.00 | 0.00 | 0.00 | 63 | 988.0 |
| 20260905181124 | 96 | 48 | 2.6 | 6.1 | 0.00 | 0.00 | 0.00 | 63 | 988.1 |
| 20260905180123 | 95 | 40 | 3.5 | 5.2 | 0.00 | 0.00 | 0.00 | 63 | 988.1 |
| 20260905175123 | 94 | 60 | 2.6 | 5.2 | 0.00 | 0.00 | 0.00 | 65 | 988.2 |
| 20260905174144 | 95 | 60 | 3.5 | 5.2 | 0.00 | 0.00 | 0.00 | 64 | 988.2 |
| 20260905173123 | 94 | 49 | 2.6 | 5.2 | 0.00 | 0.00 | 0.00 | 67 | 988.2 |
| 20260905172123 | 93 | 46 | 2.6 | 6.1 | 0.00 | 0.00 | 0.00 | 67 | 988.5 |
| 20260905171124 | 93 | 45 | 3.5 | 5.2 | 0.00 | 0.00 | 0.00 | 67 | 988.5 |
| 20260905170123 | 94 | 54 | 2.6 | 6.1 | 0.00 | 0.00 | 0.00 | 67 | 988.5 |
| 20260905165124 | 93 | 56 | 3.5 | 5.2 | 0.00 | 0.00 | 0.00 | 68 | 988.6 |
| 20260905164124 | 92 | 47 | 2.6 | 5.2 | 0.00 | 0.00 | 0.00 | 68 | 988.6 |
| 20260905163123 | 93 | 53 | 1.7 | 4.3 | 0.00 | 0.00 | 0.00 | 69 | 988.7 |
| 20260905162123 | 92 | 58 | 2.6 | 4.3 | 0.00 | 0.00 | 0.00 | 70 | 988.7 |
| 20260905161124 | 91 | 45 | 3.5 | 5.2 | 0.00 | 0.00 | 0.00 | 71 | 988.7 |
| 20260905160124 | 91 | 39 | 3.5 | 7.0 | 0.00 | 0.00 | 0.00 | 70 | 988.7 |
| 20260905155123 | 91 | 33 | 2.6 | 4.3 | 0.00 | 0.00 | 0.00 | 70 | 988.7 |
| 20260905154124 | 90 | 64 | 2.6 | 5.2 | 0.00 | 0.00 | 0.00 | 70 | 988.5 |
| 20260905153144 | 90 | 76 | 1.7 | 3.5 | 0.00 | 0.00 | 0.00 | 70 | 988.4 |
| 20260905152144 | 89 | 41 | 3.5 | 6.1 | 0.00 | 0.00 | 0.00 | 71 | 988.4 |
| 20260905151124 | 89 | 61 | 2.6 | 4.3 | 0.00 | 0.00 | 0.00 | 71 | 988.2 |
| 20260905150124 | 89 | 37 | 2.6 | 6.1 | 0.00 | 0.00 | 0.00 | 70 | 988.2 |
| 20260905145144 | 89 | 59 | 2.6 | 6.1 | 0.00 | 0.00 | 0.00 | 69 | 988.2 |
| 20260905144124 | 89 | 42 | 1.7 | 4.3 | 0.00 | 0.00 | 0.00 | 70 | 988.1 |
| 20260905143124 | 88 | 24 | 1.7 | 5.2 | 0.00 | 0.00 | 0.00 | 72 | 988.1 |
| 20260905142124 | 88 | 40 | 0.9 | 4.3 | 0.00 | 0.00 | 0.00 | 72 | 987.9 |
| 20260905141124 | 89 | 60 | 0.0 | 2.6 | 0.00 | 0.00 | 0.00 | 71 | 988.0 |
| 20260905140123 | 88 | 68 | 0.9 | 2.6 | 0.00 | 0.00 | 0.00 | 72 | 988.0 |
| 20260905135122 | 87 | 91 | 0.9 | 1.7 | 0.00 | 0.00 | 0.00 | 74 | 987.9 |
| 20260905134124 | 85 | 45 | 0.0 | 0.0 | 0.00 | 0.00 | 0.00 | 79 | 987.9 |
| 20260905133123 | 86 | 113 | 0.0 | 1.7 | 0.00 | 0.00 | 0.00 | 78 | 987.9 |
| 20260905132123 | 85 | 175 | 0.0 | 2.6 | 0.00 | 0.00 | 0.00 | 79 | 988.0 |
| 20260905131124 | 84 | 45 | 0.0 | 1.7 | 0.00 | 0.00 | 0.00 | 82 | 987.9 |
| 20260905130123 | 83 | 180 | 0.0 | 0.0 | 0.00 | 0.00 | 0.00 | 83 | 987.9 |
| 20260905125123 | 81 | 135 | 0.0 | 0.0 | 0.00 | 0.00 | 0.00 | 90 | 987.6 |
| 20260905124144 | 79 | 113 | 0.0 | 0.0 | 0.00 | 0.00 | 0.00 | 92 | 987.7 |
| 20260905123122 | 79 | 90 | 0.0 | 0.0 | 0.00 | 0.00 | 0.00 | 92 | 987.6 |
| 20260905122123 | 78 | 135 | 0.0 | 0.0 | 0.00 | 0.00 | 0.00 | 94 | 987.5 |
| 20260905121124 | 76 | 113 | 0.0 | 0.0 | 0.00 | 0.00 | 0.00 | 97 | 987.4 |
| 20260905120122 | 76 | 180 | 0.0 | 0.0 | 0.00 | 0.00 | 0.00 | 97 | 987.4 |
| 20260905115123 | 75 | 180 | 0.0 | 0.0 | 0.00 | 0.00 | 0.00 | 97 | 987.2 |
| 20260905114124 | 75 | 158 | 0.0 | 0.0 | 0.00 | 0.00 | 0.00 | 97 | 987.1 |
| 20260905113123 | 75 | 225 | 0.0 | 0.0 | 0.00 | 0.00 | 0.00 | 97 | 987.1 |
| 20260905112123 | 75 | 225 | 0.0 | 0.0 | 0.00 | 0.00 | 0.00 | 97 | 987.1 |
| 20260905111124 | 75 | 180 | 0.0 | 0.0 | 0.00 | 0.00 | 0.00 | 97 | 987.0 |
| 20260905110123 | 75 | 225 | 0.0 | 0.0 | 0.00 | 0.00 | 0.00 | 97 | 987.0 |
| 20260905105144 | 75 | 225 | 0.0 | 0.0 | 0.00 | 0.00 | 0.00 | 97 | 987.0 |
| 20260905104123 | 75 | 203 | 0.0 | 0.0 | 0.00 | 0.00 | 0.00 | 97 | 987.1 |
| 20260905103122 | 76 | 203 | 0.0 | 0.0 | 0.00 | 0.00 | 0.00 | 97 | 987.2 |
| 20260905102123 | 76 | 203 | 0.0 | 0.0 | 0.00 | 0.00 | 0.00 | 98 | 987.1 |
| 20260905101144 | 76 | 315 | 0.0 | 0.0 | 0.00 | 0.00 | 0.00 | 98 | 987.1 |
| 20260905100122 | 76 | 315 | 0.0 | 0.0 | 0.00 | 0.00 | 0.00 | 97 | 987.1 |
| 20260905095144 | 76 | 315 | 0.0 | 0.0 | 0.00 | 0.00 | 0.00 | 97 | 987.2 |
| 20260905094123 | 76 | 158 | 0.0 | 0.0 | 0.00 | 0.00 | 0.00 | 97 | 987.2 |
| 20260905093123 | 76 | 158 | 0.0 | 0.0 | 0.00 | 0.00 | 0.00 | 97 | 987.2 |
| 20260905092122 | 76 | 45 | 0.0 | 0.0 | 0.00 | 0.00 | 0.00 | 97 | 987.2 |
| 20260905091123 | 76 | 270 | 0.0 | 0.0 | 0.00 | 0.00 | 0.00 | 97 | 987.2 |
| 20260905090122 | 77 | 135 | 0.0 | 0.0 | 0.00 | 0.00 | 0.00 | 97 | 987.2 |
| 20260905085122 | 77 | 113 | 0.0 | 0.0 | 0.00 | 0.00 | 0.00 | 97 | 987.2 |
| 20260905084144 | 77 | 225 | 0.0 | 0.0 | 0.00 | 0.00 | 0.00 | 96 | 987.2 |
| 20260905083122 | 77 | 180 | 0.0 | 0.0 | 0.00 | 0.00 | 0.00 | 96 | 987.4 |
| 20260905082144 | 77 | 180 | 0.0 | 0.0 | 0.00 | 0.00 | 0.00 | 95 | 987.2 |
| 20260905081122 | 77 | 180 | 0.0 | 0.0 | 0.00 | 0.00 | 0.00 | 95 | 987.4 |
| 20260905080122 | 77 | 180 | 0.0 | 0.0 | 0.00 | 0.00 | 0.00 | 95 | 987.4 |
| 20260905075122 | 77 | 180 | 0.0 | 0.0 | 0.00 | 0.00 | 0.00 | 95 | 987.5 |
| 20260905074123 | 77 | 180 | 0.0 | 0.0 | 0.00 | 0.00 | 0.00 | 95 | 987.5 |
| 20260905073123 | 77 | 338 | 0.0 | 0.0 | 0.00 | 0.00 | 0.00 | 96 | 987.5 |
| 20260905072123 | 77 | 338 | 0.0 | 0.0 | 0.00 | 0.00 | 0.00 | 96 | 987.6 |
| 20260905071123 | 77 | 338 | 0.0 | 0.0 | 0.00 | 0.00 | 0.00 | 95 | 987.6 |
| 20260905070123 | 77 | 203 | 0.0 | 0.0 | 0.00 | 0.00 | 0.00 | 94 | 987.6 |
| 20260905065122 | 77 | 203 | 0.0 | 0.0 | 0.00 | 0.00 | 0.00 | 94 | 987.7 |
| 20260905064123 | 78 | 203 | 0.0 | 0.0 | 0.00 | 0.00 | 0.00 | 94 | 987.5 |
| 20260905063123 | 78 | 180 | 0.0 | 0.0 | 0.00 | 0.00 | 0.00 | 95 | 987.7 |
| 20260905062122 | 78 | 180 | 0.0 | 0.0 | 0.00 | 0.00 | 0.00 | 96 | 987.8 |
| 20260905061123 | 78 | 45 | 0.0 | 0.0 | 0.00 | 0.00 | 0.00 | 96 | 988.0 |
| 20260905060122 | 78 | 45 | 0.0 | 0.0 | 0.00 | 0.00 | 0.00 | 95 | 988.0 |
| 20260905055122 | 78 | 45 | 0.0 | 0.0 | 0.00 | 0.00 | 0.00 | 95 | 988.0 |
| 20260905054122 | 78 | 45 | 0.0 | 0.0 | 0.00 | 0.00 | 0.00 | 95 | 987.9 |
| 20260905053122 | 78 | 113 | 0.0 | 0.0 | 0.00 | 0.00 | 0.00 | 94 | 987.9 |
| 20260905052143 | 78 | 113 | 0.0 | 0.0 | 0.00 | 0.00 | 0.00 | 94 | 987.8 |
| 20260905051123 | 78 | 113 | 0.0 | 0.0 | 0.00 | 0.00 | 0.00 | 94 | 987.8 |
| 20260905050143 | 79 | 180 | 0.0 | 0.0 | 0.00 | 0.00 | 0.00 | 94 | 987.8 |
| 20260905045122 | 79 | 113 | 0.0 | 0.0 | 0.00 | 0.00 | 0.00 | 93 | 987.9 |
| 20260905044123 | 79 | 23 | 0.0 | 0.0 | 0.00 | 0.00 | 0.00 | 93 | 987.9 |
| 20260905043122 | 79 | 248 | 0.0 | 0.0 | 0.00 | 0.00 | 0.00 | 93 | 988.0 |
| 20260905042122 | 79 | 45 | 0.0 | 0.0 | 0.00 | 0.00 | 0.00 | 94 | 987.8 |
| 20260905041122 | 79 | 68 | 0.0 | 0.0 | 0.00 | 0.00 | 0.00 | 93 | 987.7 |
| 20260905040122 | 79 | 203 | 0.0 | 0.0 | 0.00 | 0.00 | 0.00 | 94 | 987.7 |
| 20260905035123 | 80 | 23 | 0.0 | 0.0 | 0.00 | 0.00 | 0.00 | 92 | 987.8 |
| 20260905034123 | 80 | 23 | 0.0 | 0.0 | 0.00 | 0.00 | 0.00 | 93 | 987.8 |
| 20260905033122 | 80 | 23 | 0.0 | 0.0 | 0.00 | 0.00 | 0.00 | 91 | 987.8 |
| 20260905032123 | 80 | 23 | 0.0 | 0.0 | 0.00 | 0.00 | 0.00 | 91 | 987.7 |
| 20260905031123 | 80 | 23 | 0.0 | 0.0 | 0.00 | 0.00 | 0.00 | 92 | 987.6 |
| 20260905030122 | 80 | 45 | 0.0 | 0.0 | 0.00 | 0.00 | 0.00 | 92 | 987.6 |
| 20260905025122 | 81 | 68 | 0.0 | 0.0 | 0.00 | 0.00 | 0.00 | 91 | 987.5 |
| 20260905024123 | 81 | 68 | 0.0 | 0.0 | 0.00 | 0.00 | 0.00 | 89 | 987.6 |
| 20260905023123 | 82 | 68 | 0.0 | 0.0 | 0.00 | 0.00 | 0.00 | 89 | 987.6 |